Wind_Speed
20 19 19 17 16 20 21 21 21 19 17 17 17 16 16 17 17 15 15 15 15 17 17 14 15 14 16 16 11 15 22 8 5 15 9 4 3 7 6 5 10 12 17
18 18 18 18 18 20 21 19 20 20 17 18 14 14 16 15 14 15 16 16 15 15 16 16 17 16 16 16 15 9 9 23 20 19 14 14 13 10 9 7 10 10 7
16 19 19 17 17 19 19 19 19 19 18 15 13 16 17 16 17 18 18 15 15 15 15 15 15 15 15 16 15 14 10 9 13 9 8 8 8 5 5 6 5 7 8
16 17 18 18 19 21 20 19 20 17 16 16 18 20 18 18 18 18 17 17 14 13 13 13 12 13 13 14 16 16 15 13 9 7 7 7 6 4 3 4 4 4 2
15 16 16 17 21 23 23 22 20 18 18 19 20 19 19 18 17 17 17 15 14 14 13 13 13 13 12 11 14 15 16 14 11 9 6 5 3 3 2 1 1 2 3
13 14 15 17 18 19 20 19 19 18 18 19 20 20 19 19 18 19 18 17 16 15 14 13 12 12 12 12 12 12 12 11 10 9 8 6 5 4 2 1 1 2 4
11 12 13 14 15 17 17 17 17 17 18 18 20 20 20 20 21 21 21 20 17 17 15 15 14 12 11 11 10 10 10 10 10 8 7 7 6 4 4 3 2 3 5
12 13 14 14 14 15 16 16 17 18 19 20 20 19 20 22 22 21 19 17 15 14 14 14 13 12 11 11 9 8 9 9 10 10 10 10 9 9 9 9 9 9 9
14 14 14 14 14 14 16 17 18 20 21 20 20 20 20 20 19 18 16 15 15 14 14 15 12 11 12 11 11 11 11 10 7 5 5 5 5 6 6 8 10 12 12
13 13 14 16 15 15 16 19 20 22 22 20 20 18 17 16 15 14 15 16 16 16 13 13 14 16 14 14 12 11 10 9 9 9 7 6 7 7 8 9 11 14 15
15 16 18 20 21 21 24 24 24 23 20 19 18 17 15 15 13 15 16 17 16 16 15 16 16 16 16 16 15 14 14 13 12 11 10 10 10 11 12 14 15 16 19
16 19 22 22 23 26 27 25 24 21 20 18 16 14 12 12 13 14 16 15 16 17 17 18 17 16 15 16 18 17 15 13 12 12 12 13 14 14 16 17 20 22 23
18 22 23 24 26 25 25 24 21 19 17 14 14 13 12 13 13 14 14 14 15 16 19 19 17 16 15 14 14 14 12 12 12 14 15 16 17 17 18 19 21 24 25
17 19 22 23 25 24 21 22 18 15 15 13 13 14 13 13 12 13 14 15 15 16 17 16 16 15 12 9 11 11 11 12 13 15 18 19 18 19 20 18 19 22 24
15 16 19 21 20 20 20 20 17 16 14 14 12 12 12 10 10 12 13 13 13 14 15 15 13 11 10 10 11 12 11 14 17 19 22 24 25 28 30 28 25 22 23
18 17 17 18 19 20 21 20 17 15 12 12 11 12 10 9 11 11 12 12 12 13 15 13 11 10 10 10 10 12 14 16 19 22 25 28 29 31 34 37 32 26 24
17 17 15 15 17 17 16 16 15 13 11 10 8 7 8 8 8 9 10 10 11 13 12 10 9 9 9 9 9 11 14 16 18 22 25 27 28 31 35 39 36 31 30
15 15 15 14 13 12 12 12 13 10 8 8 7 6 5 7 8 8 7 8 9 10 10 10 9 9 11 10 12 14 15 17 19 23 27 29 32 34 39 42 38 34 33
13 14 15 14 12 11 10 8 10 8 5 6 5 4 6 7 7 6 7 6 7 9 9 10 8 9 10 11 12 14 15 17 20 23 27 29 34 37 43 48 42 40 34
12 12 12 14 11 11 11 9 6 5 3 2 3 4 6 7 7 6 6 4 5 7 7 7 9 9 9 9 12 14 16 18 20 25 28 29 34 40 44 49 46 42 37
12 12 12 12 11 11 11 9 6 4 3 1 1 4 5 6 5 4 3 2 6 6 6 7 8 9 11 12 15 15 17 19 22 27 27 31 35 41 44 50 51 44 39
14 14 13 13 12 12 10 7 5 4 2 4 4 3 2 4 4 3 2 5 5 6 8 8 10 13 14 14 15 16 16 19 22 24 29 31 37 45 46 52 52 45 41
14 15 14 13 13 12 11 8 6 5 3 5 6 3 2 2 2 2 4 6 6 7 8 11 13 15 18 19 18 18 17 18 21 26 30 34 41 51 53 57 54 48 43
13 14 13 13 12 11 8 7 7 4 4 3 2 3 3 2 3 4 5 6 8 10 11 13 15 16 18 20 20 22 22 22 21 25 31 37 42 50 57 61 55 47 41
14 11 10 11 11 10 9 7 6 5 3 1 2 3 2 3 3 3 5 8 10 11 12 15 17 20 21 23 25 25 25 28 28 27 30 36 42 51 58 64 55 49 40
13 15 14 13 12 10 9 8 7 5 4 3 2 3 1 1 2 2 3 6 9 11 13 14 16 19 22 25 27 29 30 33 34 32 32 35 42 51 58 63 54 46 34
Wind_Direction
98 95 96 99 101 102 106 104 103 102 106 101 92 84 83 81 73 69 62 65 69 68 64 67 60 52 48 56 71 75 55 74 163 127 140 123 191 187 155 132 198 214 201
97 99 96 100 101 103 103 106 101 96 94 89 83 85 85 83 75 65 61 66 66 69 55 64 64 55 45 48 59 79 76 57 79 72 74 72 78 135 125 117 82 118 143
99 98 101 104 105 104 108 105 100 92 88 90 97 95 85 73 61 57 59 62 59 55 49 56 59 59 52 53 63 74 69 63 91 99 83 77 85 89 70 92 65 49 73
101 100 103 106 105 107 107 103 98 101 104 104 97 86 77 69 63 61 66 67 62 51 53 54 56 59 60 62 66 69 74 87 111 107 97 91 116 128 121 121 126 145 162
100 100 105 112 111 110 113 111 109 108 106 98 87 82 78 73 78 80 81 77 72 69 62 55 54 57 58 61 66 67 67 76 101 107 107 98 95 88 102 114 190 218 232
93 96 99 103 106 110 108 108 106 103 100 94 89 89 90 89 88 87 86 82 79 76 70 66 62 61 63 62 60 65 58 71 85 95 90 102 107 105 93 87 253 265 250
86 93 98 100 103 104 107 104 103 102 100 97 98 97 93 93 90 87 83 81 80 76 73 68 64 65 66 72 66 53 57 56 60 71 71 63 70 56 38 5 316 291 280
98 99 102 104 105 104 104 104 106 109 105 104 102 95 93 95 90 85 80 77 72 68 70 70 68 68 67 66 62 68 58 49 42 36 28 17 11 0 338 326 309 294 281
93 95 101 108 110 109 111 113 117 113 110 106 105 102 99 94 89 85 81 83 77 68 65 69 78 80 74 64 68 82 81 71 62 56 39 18 356 341 325 308 296 295 287
102 104 106 108 113 114 127 124 119 113 108 108 109 104 102 93 88 86 84 76 71 64 62 65 72 80 83 86 88 89 93 76 76 64 53 27 5 345 321 305 290 279 274
108 100 104 111 109 113 118 115 114 112 110 106 104 105 101 97 93 82 76 70 68 62 58 58 67 70 76 82 81 74 77 75 67 55 39 22 5 349 332 312 294 278 268
113 102 108 113 110 109 111 112 113 112 112 105 97 100 97 90 82 73 67 62 60 58 61 62 68 72 74 77 76 72 64 56 46 37 25 11 359 345 324 306 287 276 270
115 111 112 113 113 113 112 114 115 113 107 95 92 94 84 76 67 62 59 61 57 59 61 64 68 65 70 77 75 63 50 40 28 17 6 357 346 338 330 311 293 281 274
121 121 117 117 119 116 110 113 108 116 103 96 92 85 77 70 58 56 61 59 56 57 64 68 66 61 62 62 51 44 37 20 12 9 2 353 347 342 343 334 309 295 283
131 135 131 126 129 126 114 117 116 112 104 92 81 76 69 63 55 55 61 64 64 72 71 69 68 69 65 47 35 33 22 11 4 359 1 352 349 349 349 345 332 314 289
129 134 133 134 136 126 121 123 119 109 102 92 82 70 67 53 47 54 58 59 65 68 67 64 62 56 46 32 26 19 10 5 1 360 356 350 347 345 345 344 338 324 316
131 135 136 134 135 131 125 122 118 118 115 105 94 78 56 48 43 45 49 60 72 70 68 67 59 44 33 24 22 11 3 357 355 353 351 344 342 340 341 339 334 327 315
140 139 142 144 143 136 131 130 121 120 121 113 108 74 63 50 32 31 31 62 69 66 64 57 42 25 28 15 7 0 356 347 346 343 340 342 341 337 337 336 330 325 315
148 143 148 158 159 144 144 141 131 129 132 122 110 92 64 50 35 22 30 53 59 55 41 41 35 31 23 15 7 359 349 339 337 337 338 340 338 336 336 333 330 326 323
161 159 158 160 161 156 157 159 152 149 151 119 95 64 55 43 31 15 22 37 54 44 27 20 24 21 4 348 342 338 339 336 334 329 335 338 339 337 336 336 333 334 327
178 170 169 167 169 169 170 175 183 180 184 208 351 34 43 47 25 24 8 10 49 9 339 2 2 352 348 346 344 339 335 335 334 338 344 347 339 338 340 341 339 332 322
177 174 172 174 178 178 177 179 185 220 253 283 312 348 18 46 28 11 355 354 11 345 344 349 340 341 345 346 346 345 340 335 335 346 348 346 341 335 350 345 339 326 324
187 185 181 177 179 190 189 198 209 224 258 285 300 305 347 49 22 10 344 344 346 344 345 340 341 341 344 348 353 348 344 342 346 343 341 345 342 335 350 347 337 330 326
206 199 195 189 190 195 207 207 227 247 262 271 294 327 331 17 11 357 347 346 342 347 348 345 342 342 343 344 345 347 345 341 337 338 339 340 341 338 348 347 338 333 328
240 220 208 212 211 209 212 219 232 241 239 331 337 330 340 349 16 7 360 359 350 347 349 352 350 349 349 350 347 346 343 341 339 334 335 336 340 340 348 346 340 337 334
245 241 224 216 217 215 212 217 211 218 230 242 242 246 256 335 348 19 14 7 355 349 348 350 348 347 347 348 346 342 343 344 342 337 335 337 338 340 349 347 343 342 343
Height
5882 5883 5884 5885 5886 5886 5887 5890 5893 5894 5896 5897 5897 5898 5898 5900 5899 5900 5900 5901 5900 5899 5898 5897 5896 5894 5892 5892 5892 5891 5891 5889 5888 5891 5892 5892 5892 5893 5895 5895 5894 5893 5894
5887 5887 5888 5889 5889 5888 5889 5893 5895 5896 5898 5898 5900 5901 5901 5901 5901 5902 5902 5901 5901 5900 5900 5899 5898 5896 5894 5894 5893 5893 5893 5891 5890 5894 5896 5895 5895 5895 5896 5896 5894 5896 5897
5890 5891 5891 5892 5892 5893 5894 5896 5897 5898 5899 5901 5902 5903 5902 5903 5903 5903 5903 5903 5903 5903 5902 5901 5900 5899 5897 5895 5894 5894 5894 5893 5893 5896 5896 5898 5896 5896 5897 5897 5897 5897 5898
5893 5895 5895 5896 5896 5896 5898 5899 5899 5901 5904 5905 5905 5904 5905 5905 5905 5906 5906 5905 5905 5905 5904 5903 5902 5901 5899 5899 5897 5896 5895 5894 5895 5896 5897 5898 5899 5900 5900 5899 5899 5899 5899
5896 5897 5898 5899 5899 5900 5901 5902 5903 5905 5905 5905 5906 5907 5907 5907 5908 5908 5908 5909 5908 5907 5907 5906 5904 5903 5902 5901 5900 5898 5898 5897 5897 5898 5899 5900 5900 5901 5901 5900 5900 5900 5900
5897 5898 5899 5900 5900 5901 5902 5904 5904 5905 5906 5907 5908 5910 5911 5911 5911 5912 5912 5911 5911 5910 5910 5908 5906 5906 5905 5903 5902 5901 5901 5901 5900 5900 5900 5901 5902 5902 5902 5902 5902 5903 5902
5899 5900 5901 5901 5902 5902 5903 5905 5907 5908 5909 5911 5912 5913 5914 5914 5914 5914 5914 5915 5914 5913 5911 5910 5909 5907 5906 5906 5905 5904 5903 5903 5903 5903 5903 5904 5904 5903 5902 5902 5902 5902 5901
5902 5903 5903 5903 5904 5905 5906 5908 5909 5911 5913 5914 5916 5917 5918 5918 5917 5917 5916 5916 5916 5915 5914 5913 5912 5911 5909 5908 5907 5907 5907 5907 5907 5907 5906 5906 5906 5906 5905 5905 5903 5903 5901
5906 5906 5905 5906 5907 5908 5910 5910 5911 5913 5915 5917 5918 5919 5920 5920 5919 5919 5919 5919 5918 5917 5916 5914 5912 5912 5911 5910 5909 5909 5909 5908 5907 5906 5906 5906 5905 5905 5903 5903 5902 5900 5900
5908 5908 5908 5908 5909 5910 5911 5912 5915 5917 5918 5919 5920 5922 5922 5921 5922 5922 5921 5921 5920 5917 5915 5914 5914 5914 5912 5910 5910 5910 5909 5909 5909 5909 5908 5906 5905 5904 5902 5900 5898 5897 5894
5911 5910 5910 5911 5912 5912 5913 5916 5918 5919 5921 5922 5923 5924 5924 5924 5924 5924 5923 5921 5919 5918 5916 5917 5915 5914 5914 5912 5912 5913 5912 5911 5910 5909 5908 5907 5905 5903 5900 5897 5895 5893 5891
5914 5913 5913 5915 5915 5916 5917 5919 5921 5923 5924 5925 5925 5926 5926 5927 5926 5925 5924 5922 5920 5919 5918 5918 5917 5915 5915 5915 5914 5914 5914 5913 5912 5910 5908 5906 5903 5900 5896 5893 5889 5886 5883
5917 5917 5917 5918 5919 5920 5922 5923 5925 5926 5928 5929 5928 5928 5929 5929 5928 5926 5925 5924 5921 5920 5919 5919 5919 5918 5918 5918 5916 5915 5915 5913 5911 5909 5907 5905 5902 5898 5894 5889 5885 5881 5878
5920 5921 5921 5922 5922 5923 5924 5926 5928 5929 5931 5931 5931 5930 5931 5930 5929 5928 5927 5925 5922 5922 5921 5921 5920 5920 5919 5919 5918 5915 5914 5912 5910 5907 5905 5902 5898 5894 5889 5885 5881 5877 5872
5923 5924 5924 5925 5926 5926 5926 5928 5930 5931 5932 5933 5933 5932 5932 5931 5931 5929 5928 5926 5924 5923 5923 5922 5921 5920 5920 5919 5917 5915 5914 5911 5908 5905 5901 5897 5892 5887 5882 5878 5873 5870 5866
5926 5928 5928 5928 5929 5930 5929 5930 5931 5933 5934 5933 5934 5934 5934 5933 5932 5931 5929 5927 5926 5925 5923 5922 5922 5921 5919 5918 5916 5914 5912 5910 5906 5902 5899 5894 5889 5884 5878 5873 5868 5863 5860
5928 5929 5931 5932 5932 5933 5932 5932 5933 5934 5935 5934 5935 5935 5935 5935 5934 5932 5930 5929 5928 5927 5925 5924 5923 5921 5920 5919 5917 5914 5911 5908 5904 5900 5896 5893 5888 5882 5876 5869 5862 5857 5853
5931 5931 5932 5934 5935 5935 5935 5934 5935 5936 5936 5936 5936 5936 5936 5935 5934 5932 5931 5930 5929 5928 5927 5926 5924 5922 5921 5919 5917 5914 5911 5907 5903 5899 5894 5889 5883 5877 5871 5863 5856 5851 5844
5932 5933 5934 5935 5936 5938 5938 5937 5937 5937 5938 5937 5937 5937 5937 5936 5934 5933 5932 5931 5930 5929 5928 5927 5926 5924 5921 5919 5917 5914 5910 5906 5901 5896 5892 5886 5879 5872 5864 5855 5846 5840 5837
5935 5935 5935 5936 5938 5939 5940 5940 5939 5938 5938 5937 5937 5937 5936 5935 5934 5934 5933 5932 5931 5930 5929 5928 5926 5924 5922 5919 5916 5912 5908 5904 5899 5894 5889 5882 5875 5868 5858 5847 5838 5833 5826
5937 5936 5936 5936 5937 5938 5939 5940 5940 5940 5939 5939 5938 5937 5936 5935 5934 5934 5933 5933 5931 5931 5931 5928 5926 5923 5921 5918 5915 5911 5907 5902 5897 5892 5885 5879 5871 5862 5852 5840 5831 5823 5814
5936 5936 5936 5936 5937 5937 5938 5939 5939 5939 5939 5939 5939 5937 5936 5935 5935 5934 5933 5933 5931 5931 5929 5928 5925 5922 5920 5917 5914 5910 5905 5900 5894 5889 5883 5876 5868 5856 5844 5836 5826 5813 5806
5934 5935 5935 5935 5936 5938 5937 5938 5939 5938 5939 5940 5940 5939 5938 5936 5935 5934 5933 5933 5932 5930 5928 5926 5924 5921 5918 5914 5911 5908 5903 5898 5893 5886 5879 5872 5863 5852 5838 5828 5814 5803 5794
5934 5935 5935 5934 5935 5936 5937 5937 5938 5939 5939 5940 5940 5940 5939 5938 5937 5935 5934 5933 5931 5930 5928 5925 5922 5919 5916 5912 5907 5904 5899 5894 5889 5884 5876 5868 5859 5848 5834 5823 5807 5794 5784
5935 5935 5935 5935 5934 5935 5935 5935 5936 5938 5938 5938 5939 5939 5939 5938 5936 5935 5934 5933 5930 5929 5926 5923 5920 5917 5914 5911 5906 5901 5895 5890 5884 5878 5872 5864 5855 5843 5830 5818 5799 5787 5775
5933 5934 5933 5933 5933 5934 5935 5935 5935 5936 5936 5936 5936 5936 5937 5937 5935 5935 5934 5932 5930 5929 5925 5922 5919 5916 5913 5909 5904 5899 5894 5888 5881 5875 5868 5860 5851 5839 5827 5813 5795 5780 5769